SCP
0 0 0 0 0 0 0 0 0 0 -0 -0 -0 -0 -0 -0 -0 -0 -0 -0 -0 -0 -0 0 0 0 0 -0 0 -0 -0 -0 0 -0 0 0 0 -0 -0 -0 0 0 -0 0 0 0 -0
0 0 0 0 0 0 0 0 0 0 0 -0 -0 -0 -0 -0 -0 -0 -0 -0 -0 -0 -0 0 0 0 0 -0 0 -0 -0 0 -0 -0 -0 0 0 0 -0 -0 0 -0 -0 0 0 0 0
0 0 0 0 0 0 0 0 0 0 0 -0 -0 -0 -0 -0 -0 -0 -0 -0 -0 -0 -0 -0 0 0 0 0 0 -0 -0 -0 -0 0 0 0 -0 -0 -0 -0 -0 0 0 -0 0 0 0
0 0 0 0 0 0 0 0 0 0 0 -0 -0 -0 -0 -0 -0 -0 -0 -0 -0 -0 -0 0 0 0 0 0 0 -0 -0 0 -0 0 0 -0 -0 -0 0 -0 0 -0 -0 0 0 -0 0
0 0 0 0 0 0 0 0 0 0 0 0 -0 -0 -0 -0 -0 -0 -0 -0 -0 -0 0 0 0 0 0 0 0 -0 -0 0 -0 0 -0 -0 -0 -0 -0 -0 -0 -0 -0 0 0 0 0
0 0 0 0 0 0 0 0 0 0 0 0 -0 -0 -0 -0 -0 -0 -0 0 0 0 0 -0 -0 0 -0 0 0 0 0 0 0 -0 -0 -0 -0 -0 -0 0 0 0 -0 0 0 0 -0
0 0 0 0 0 0 0 0 0 0 0 0 -0 -0 -0 -0 -0 -0 -0 0 0 0 -0 -0 0 -0 0 0 0 0 -0 -0 -0 -0 -0 -0 -0 0 -0 -0 -0 0 0 0 0 0 0
0 0 0 0 0 0 0 0 0 0 0 0 -0 -0 -0 -0 -0 -0 0 0 0 0 0 0 -0 0 0 0 0 -0 0 0 0 -0 -0 0 -0 0 0 0 0 -0 -0 0 0 0 0
0 0 -0 -0 0 0 -0 0 0 0 0 0 -0 -0 -0 -0 -0 -0 0 0 0 0 0 0 -0 -0 -0 -0 0 -0 -0 -0 -0 -0 -0 -0 0 0 0 -0 -0 -0 0 -0 -0 0 0
0 0 -0 -0 -0 0 0 0 0 0 0 0 -0 -0 -0 -0 -0 -0 -0 0 0 0 0 0 0 0 0 -0 -0 0 -0 -0 -0 0 -0 0 -0 0 -0 -0 -0 0 0 -0 -0 -0 0
0 -0 0 -0 -0 -0 0 0 0 0 0 0 0 -0 -0 0 0 0 0 0 0 0 -0 0 0 0 -0 0 -0 0 0 0 -0 -0 0 -0 -0 0 0 -0 0 -0 -0 -0 0 0 -0
0 -0 0 0 -0 -0 -0 0 0 0 0 0 0 -0 0 -0 0 0 0 0 0 0 0 0 0 0 -0 0 0 0 -0 0 0 -0 -0 0 0 0 -0 0 0 0 0 0 0 0 -0
0 0 0 0 0 0 0 0 0 0 0 0 -0 -0 0 0 0 0 0 0 0 0 0 0 0 0 -0 -0 0 0 -0 -0 -0 -0 -0 -0 -0 0 0 -0 0 0 -0 0 0 -0 0
0 0 0 0 0 0 0 0 0 0 0 0 -0 -0 -0 0 0 0 0 0 0 0 0 0 0 0 0 0 -0 0 -0 0 -0 -0 -0 0 -0 0 0 0 -0 -0 0 -0 -0 0 0
0 0 0 0 0 0 0 0 0 0 0 0 -0 0 0 0 0 0 0 0 0 0 0 0 0 -0 -0 0 0 0 0 -0 0 0 -0 0 0 0 0 0 0 0 0 0 -0 -0 0
0 0 0 0 0 0 0 0 0 0 0 0 0 0 0 0 0 0 0 0 0 0 0 0 0 0 0 0 0 0 0 0 -0 0 -0 0 0 0 0 0 0 0 0 0 0 0 0
0 0 0 0 0 0 0 0 0 0 0 0 0 0 0 0 0 0 0 0 0 0 0 0 0 -0 0 0 0 0 -0 0 0 -0 0 -0 0 -0 0 -0 -0 0 0 0 0 0 -0
0 0 0 0 0 0 0 0 0 0 0 0 0 0 0 0 0 0 0 0 0 0 0 0 0 0 0 0 0 0 0 0 0 0 0 0 0 -0 -0 0 0 0 0 0 -0 0 0
0 0 0 0 0 0 0 0 0 0 0 0 0 0 0 0 0 0 0 0 0 0 0 0 0 0 0 0 0 0 0 0 0 -0 0 0 0 0 -0 0 -0 0 -0 0 0 0 -0
0 0 0 0 0 0 0 0 0 0 0 0 0 0 0 0 0 0 0 0 0 0 0 0 0 0 0 0 0 0 0 0 0 0 0 0 -0 -0 0 0 0 -0 0 0 0 0 0
0 0 0 0 0 0 0 0 0 0 0 0 0 0 0 0 0 0 0 0 0 0 0 0 0 0 0 0 0 0 0 0 0 0 0 0 0 -0 0 0 0 0 0 0 0 0 0
0 0 0 0 0 0 0 0 0 0 0 0 0 0 0 0 0 0 0 0 0 0 0 0 0 0 0 0 0 0 0 0 0 0 0 0 0 0 0 0 0 0 -0 0 0 0 0
0 0 0 0 0 0 0 0 0 0 0 0 0 0 0 0 0 0 0 0 0 0 0 0 0 0 0 0 0 0 0 0 0 0 0 0 0 0 0 0 0 0 0 0 0 0 0
0 0 0 0 0 0 0 0 0 0 0 0 0 0 0 0 0 0 0 0 0 0 0 0 0 0 0 0 0 0 0 0 0 0 0 0 0 0 -0 0 0 0 0 0 0 0 0
0 0 0 0 0 0 0 0 0 0 0 0 0 0 0 0 0 0 0 0 0 0 0 0 0 1 0 1 0 0 0 0 0 0 0 0 0 -0 0 0 0 0 0 0 0 0 -0
0 0 0 0 0 0 0 0 0 0 0 0 0 0 0 0 0 0 0 0 0 0 0 0 0 0 1 1 0 0 0 0 0 0 0 0 0 0 -0 0 -0 0 0 0 0 0 0
0 0 0 0 0 0 0 0 0 0 0 0 0 0 0 0 0 0 0 0 0 0 0 0 0 0 0 0 0 0 0 0 -0 0 1 0 0 0 0 0 0 0 0 0 0 1 0
0 0 0 0 0 0 0 0 0 0 0 0 0 0 0 0 0 0 0 0 0 0 0 0 0 0 0 0 0 0 0 0 0 0 0 0 0 0 0 0 0 0 0 0 1 0 1
0 0 0 0 0 0 0 0 0 0 0 0 0 0 0 0 0 0 0 0 0 0 0 0 0 0 2 1 0 0 0 0 0 0 0 0 0 0 0 0 0 0 0 0 0 0 0
Wind_Speed_500mb
24 26 29 30 31 32 34 36 39 41 41 42 42 42 40 42 42 39 29 26 28 20 16 17 18 18 13 20 12 4 6 3 3 6 12 19 19 26 28 18 8 10 16 10 11 8 17
24 26 29 31 33 33 35 36 38 41 41 41 42 43 43 43 43 40 26 27 27 17 15 16 18 20 17 34 7 5 7 4 6 10 15 14 22 24 22 12 16 9 7 8 3 10 10
21 24 28 32 33 35 36 37 38 39 41 40 42 44 43 44 43 36 26 30 24 14 12 15 18 19 20 14 11 12 11 10 10 14 18 12 21 27 22 12 3 6 29 23 19 17 6
20 22 26 31 33 35 36 37 38 38 41 41 41 43 44 45 43 29 25 28 15 9 6 11 15 16 28 20 14 16 17 17 16 14 18 20 24 28 17 11 19 24 39 18 27 7 15
23 26 28 31 35 36 36 37 37 38 41 42 41 42 44 45 44 24 25 24 5 13 3 9 11 16 31 22 22 21 20 20 18 14 16 21 27 35 23 29 46 62 26 18 23 24 6
24 28 30 32 35 37 36 36 38 39 41 42 41 41 42 44 43 23 26 11 4 6 5 9 12 16 20 31 31 20 18 16 19 22 23 26 43 29 31 17 7 26 20 11 4 18 17
26 28 31 34 38 39 38 36 38 40 41 41 42 41 40 41 40 25 24 18 11 8 21 20 17 29 13 16 17 24 22 18 23 27 32 39 21 15 21 17 23 21 23 24 28 16 17
29 31 34 35 38 42 41 39 39 40 41 41 42 40 39 38 31 23 21 12 13 12 20 25 25 24 14 14 28 31 25 23 29 31 40 18 26 4 10 16 19 30 33 19 6 11 14
32 36 39 40 38 41 44 42 40 41 41 40 41 40 39 35 21 26 9 5 12 16 16 24 32 29 24 27 35 41 30 32 29 30 31 30 14 9 15 26 31 28 16 28 32 21 36
34 38 41 44 43 41 44 45 41 41 42 40 40 40 39 32 12 23 3 13 18 11 11 26 26 22 27 31 28 24 28 36 25 27 26 28 26 8 23 32 29 25 21 32 40 26 19
38 38 42 46 47 44 43 44 42 41 41 39 38 38 33 36 32 14 14 18 16 4 11 16 32 15 38 37 32 34 23 25 29 27 16 30 21 13 24 20 23 32 30 35 36 31 31
40 42 43 45 46 46 45 43 41 41 40 39 36 37 33 32 29 17 19 18 8 13 6 17 21 25 33 46 41 10 29 31 25 27 25 27 35 10 30 12 18 21 25 35 32 28 13
42 44 43 44 43 44 44 43 40 39 40 38 35 34 33 28 10 19 19 9 13 16 10 14 22 35 38 35 34 24 26 31 27 24 32 36 35 22 7 28 18 16 29 6 9 16 8
46 44 43 42 41 41 43 43 38 37 37 38 34 33 30 25 16 15 13 16 17 11 3 8 17 28 34 30 34 28 18 25 36 36 27 13 23 17 13 18 22 28 19 18 36 20 14
48 42 42 39 40 40 42 42 38 34 35 37 32 22 25 15 10 9 18 18 11 6 8 10 18 29 24 24 17 32 31 26 17 23 28 8 16 14 4 9 8 13 18 22 23 33 24
48 41 40 38 37 40 39 40 36 31 29 34 32 24 19 18 12 9 15 27 15 5 11 17 25 27 26 26 26 24 28 23 28 15 21 9 18 5 16 12 24 20 22 22 9 10 28
48 42 40 38 36 37 36 35 33 26 23 26 20 14 14 12 10 20 18 10 5 3 6 11 9 16 7 17 23 26 18 20 12 25 31 21 14 26 7 27 15 10 7 22 12 17 23
51 46 41 37 34 33 33 30 28 23 17 14 11 15 11 13 21 29 21 7 5 13 8 10 14 12 6 5 12 11 14 3 7 11 18 26 11 23 32 12 13 17 22 23 18 7 16
55 50 41 36 32 32 30 23 24 19 14 7 11 25 10 16 15 20 19 15 11 10 6 7 13 9 4 7 5 5 4 18 6 13 5 13 14 18 29 22 29 29 18 7 12 19 28
58 50 43 38 35 33 29 21 20 18 13 6 9 9 24 27 33 20 11 21 17 16 14 10 12 10 13 11 10 5 14 8 12 16 8 8 15 17 26 13 17 22 15 19 10 15 29
61 54 46 38 36 34 30 23 17 18 15 8 14 11 10 12 26 25 12 9 24 15 18 13 15 21 21 14 15 18 12 20 11 10 9 10 19 28 26 26 20 25 29 21 19 23 26
63 54 45 41 37 35 30 23 20 18 16 15 9 10 10 22 8 14 15 22 22 14 11 21 18 10 15 19 14 21 7 3 11 16 14 11 16 18 26 32 22 28 29 26 29 28 29
65 57 51 47 39 35 31 24 21 17 16 10 10 12 10 17 19 20 25 26 20 0 14 9 5 14 24 12 11 15 11 10 10 10 15 12 17 13 26 22 23 20 23 31 21 25 32
66 57 54 48 40 34 31 26 22 20 23 19 8 9 16 19 21 23 5 16 16 17 14 8 12 17 12 13 13 17 21 19 19 18 16 15 16 19 22 17 28 8 12 11 17 25 30
69 61 55 46 40 34 32 28 24 22 22 22 15 11 17 19 26 28 11 18 19 15 19 16 5 7 16 10 16 22 19 20 25 26 17 18 17 22 22 24 24 10 5 7 17 24 27
66 59 51 44 39 34 32 29 25 23 22 22 15 17 11 21 16 10 22 22 19 20 21 22 10 6 6 16 21 31 26 29 30 29 21 18 17 20 26 11 24 16 14 15 11 27 18
65 58 51 43 39 35 31 29 26 24 23 22 15 26 11 24 15 5 13 12 17 13 12 14 5 11 11 17 25 26 27 31 31 30 24 22 21 29 27 22 19 12 17 5 20 9 27
63 56 48 43 38 34 31 28 25 23 22 21 15 23 14 23 15 10 17 14 9 15 17 8 10 18 13 22 24 21 24 25 23 26 24 13 22 22 22 26 31 18 5 8 12 20 27
62 55 48 43 39 34 30 27 25 24 24 24 10 18 15 16 12 13 21 22 17 7 9 5 7 6 15 10 19 17 20 11 12 20 31 23 22 18 20 11 6 10 15 23 26 24 26
Wind_Direction_500mb
331 339 340 344 350 353 353 353 351 352 354 355 354 351 350 342 342 339 336 328 321 306 282 249 234 228 230 240 231 151 221 228 172 264 287 306 283 337 348 348 307 283 54 44 53 64 20
324 332 334 339 344 351 348 350 347 348 348 351 350 350 349 343 341 341 333 328 322 294 279 240 223 216 219 249 128 233 217 203 180 256 294 306 332 342 292 334 312 25 0 62 36 65 106
319 325 332 335 340 346 344 344 343 342 342 347 346 348 347 343 343 342 333 332 326 298 266 226 214 206 236 240 178 190 193 194 228 250 289 326 309 306 340 262 333 247 239 192 108 60 84
316 326 331 331 335 341 340 340 336 339 338 344 342 345 345 344 345 343 337 337 343 333 247 211 201 191 244 198 191 200 209 231 232 250 268 290 294 287 272 327 250 259 325 126 95 30 95
318 323 328 327 331 333 336 335 332 335 336 339 340 342 345 344 344 343 337 335 289 13 308 193 184 199 221 221 206 212 213 233 212 238 258 274 273 270 255 229 32 324 262 40 103 73 320
313 317 322 324 324 327 330 332 330 332 334 335 337 338 343 343 345 339 347 352 310 312 0 167 239 214 227 205 193 199 208 224 238 238 243 241 242 252 262 344 180 241 352 348 12 55 324
304 313 319 321 320 322 324 327 327 329 330 333 334 334 340 342 345 345 357 325 253 211 218 236 209 212 145 170 194 204 205 225 235 246 257 230 284 255 18 335 328 307 306 19 328 95 299
297 307 314 319 318 318 320 322 324 325 328 330 331 332 335 343 344 348 10 24 32 337 294 241 234 235 236 211 199 211 198 223 213 245 230 253 251 58 327 299 290 287 302 333 247 348 294
297 304 307 312 315 315 316 318 320 321 324 327 327 330 331 342 348 3 355 37 345 326 258 212 219 226 205 201 213 198 200 221 247 237 262 266 246 81 279 288 285 298 346 316 317 311 73
290 298 303 305 309 312 313 314 316 319 319 322 324 327 331 336 347 339 291 335 333 295 260 164 200 218 195 204 218 216 201 236 239 254 251 259 274 352 284 281 295 294 347 313 301 290 302
284 291 297 302 305 307 309 312 314 314 315 317 320 322 327 328 323 342 301 322 320 279 236 147 158 153 196 204 203 202 218 237 262 243 229 261 253 268 268 299 336 302 321 301 308 291 284
278 285 291 296 301 303 305 309 312 311 312 312 316 316 317 328 325 307 314 312 311 231 215 154 171 195 200 206 229 139 203 228 260 277 273 265 283 255 281 334 305 306 279 42 351 351 306
275 281 286 291 294 298 300 305 310 311 308 307 310 308 305 304 274 300 310 287 237 255 115 154 186 184 196 195 211 205 205 201 226 223 243 240 239 226 256 259 202 256 273 125 258 255 165
272 277 281 285 291 296 298 302 307 308 308 305 309 305 293 288 272 288 303 251 264 43 142 91 177 187 198 191 209 196 226 226 208 252 282 254 238 177 188 273 334 306 337 302 311 331 349
264 267 272 279 288 295 298 300 304 305 309 306 312 310 288 289 274 247 271 244 316 72 42 196 193 189 195 186 225 210 215 244 221 209 250 254 217 132 255 274 284 337 283 337 310 315 283
252 256 261 272 284 292 296 298 299 303 309 311 318 311 260 227 238 228 252 259 299 18 284 256 191 207 186 197 198 209 210 218 246 229 232 288 293 254 118 263 233 260 308 285 93 226 273
241 245 254 267 280 289 295 298 296 299 302 307 320 271 205 223 208 234 242 243 259 85 273 251 266 202 215 161 200 208 237 202 243 237 217 239 251 282 176 227 285 254 256 261 293 316 10
235 239 248 260 271 282 291 297 292 295 296 306 277 244 184 187 232 230 244 233 5 266 216 251 295 327 198 160 214 227 223 223 154 251 237 225 241 257 261 77 278 281 298 327 306 0 170
233 238 244 254 263 276 286 291 286 287 288 290 254 262 251 203 238 223 213 250 237 247 226 219 217 284 239 196 188 224 39 74 164 218 19 143 220 249 243 225 0 286 273 272 296 291 279
229 234 239 250 264 276 281 277 275 272 268 253 262 243 210 218 254 287 202 233 215 201 247 243 284 236 208 220 208 203 203 127 198 230 25 333 273 260 292 338 219 230 253 242 281 289 309
224 230 237 243 254 268 276 267 256 259 253 222 219 247 348 194 219 229 266 294 222 197 226 221 214 240 216 227 223 207 236 131 176 173 208 228 252 257 252 282 308 288 292 298 246 261 287
221 226 233 241 251 262 267 255 253 239 239 221 269 269 264 276 266 226 194 232 240 195 243 198 248 171 248 237 328 356 18 344 167 167 190 201 264 277 291 287 243 271 285 285 276 276 275
218 225 232 242 246 254 255 245 242 228 223 223 234 277 281 237 212 234 224 231 224 108 221 287 295 276 229 58 6 335 312 294 294 286 209 220 272 257 271 297 322 274 280 284 308 312 315
217 220 231 241 242 245 243 236 230 223 217 209 263 249 251 248 229 220 260 242 220 218 288 183 269 254 39 327 298 254 257 251 232 224 267 242 264 279 279 250 246 244 232 303 316 300 286
217 220 229 232 235 232 229 228 222 219 220 216 252 229 252 257 248 227 224 232 230 225 231 245 244 327 329 297 246 232 226 231 236 228 205 244 260 274 266 263 265 310 293 348 330 304 309
212 214 220 224 226 221 220 222 219 213 213 212 232 227 240 267 244 321 225 224 246 216 206 225 207 284 285 258 223 248 240 233 216 207 205 226 251 266 267 322 282 324 63 25 328 272 347
206 209 215 217 215 212 213 216 216 209 205 190 234 226 223 249 256 233 243 289 227 301 271 173 175 242 218 239 239 241 240 252 258 234 173 205 228 239 239 262 285 39 44 22 254 25 335
202 205 210 207 206 208 208 211 211 207 203 189 233 223 211 253 254 258 238 255 246 245 260 58 237 203 251 241 253 242 247 251 236 249 291 228 201 233 248 268 263 44 340 295 10 328 327
199 201 201 199 200 202 204 207 207 203 201 193 214 232 227 237 293 273 243 239 239 275 315 282 347 312 3 281 238 267 258 244 269 264 224 235 269 302 304 342 320 316 300 298 292 289 300
Wind_Speed_850mb
24 26 29 30 31 32 34 36 39 41 41 42 42 42 40 42 42 39 29 26 28 20 16 17 18 18 13 20 12 4 6 3 3 6 12 19 19 26 28 18 8 10 16 10 11 8 17
24 26 29 31 33 33 35 36 38 41 41 41 42 43 43 43 43 40 26 27 27 17 15 16 18 20 17 34 7 5 7 4 6 10 15 14 22 24 22 12 16 9 7 8 3 10 10
21 24 28 32 33 35 36 37 38 39 41 40 42 44 43 44 43 36 26 30 24 14 12 15 18 19 20 14 11 12 11 10 10 14 18 12 21 27 22 12 3 6 29 23 19 17 6
20 22 26 31 33 35 36 37 38 38 41 41 41 43 44 45 43 29 25 28 15 9 6 11 15 16 28 20 14 16 17 17 16 14 18 20 24 28 17 11 19 24 39 18 27 7 15
23 26 28 31 35 36 36 37 37 38 41 42 41 42 44 45 44 24 25 24 5 13 3 9 11 16 31 22 22 21 20 20 18 14 16 21 27 35 23 29 46 62 26 18 23 24 6
24 28 30 32 35 37 36 36 38 39 41 42 41 41 42 44 43 23 26 11 4 6 5 9 12 16 20 31 31 20 18 16 19 22 23 26 43 29 31 17 7 26 20 11 4 18 17
26 28 31 34 38 39 38 36 38 40 41 41 42 41 40 41 40 25 24 18 11 8 21 20 17 29 13 16 17 24 22 18 23 27 32 39 21 15 21 17 23 21 23 24 28 16 17
29 31 34 35 38 42 41 39 39 40 41 41 42 40 39 38 31 23 21 12 13 12 20 25 25 24 14 14 28 31 25 23 29 31 40 18 26 4 10 16 19 30 33 19 6 11 14
32 36 39 40 38 41 44 42 40 41 41 40 41 40 39 35 21 26 9 5 12 16 16 24 32 29 24 27 35 41 30 32 29 30 31 30 14 9 15 26 31 28 16 28 32 21 36
34 38 41 44 43 41 44 45 41 41 42 40 40 40 39 32 12 23 3 13 18 11 11 26 26 22 27 31 28 24 28 36 25 27 26 28 26 8 23 32 29 25 21 32 40 26 19
38 38 42 46 47 44 43 44 42 41 41 39 38 38 33 36 32 14 14 18 16 4 11 16 32 15 38 37 32 34 23 25 29 27 16 30 21 13 24 20 23 32 30 35 36 31 31
40 42 43 45 46 46 45 43 41 41 40 39 36 37 33 32 29 17 19 18 8 13 6 17 21 25 33 46 41 10 29 31 25 27 25 27 35 10 30 12 18 21 25 35 32 28 13
42 44 43 44 43 44 44 43 40 39 40 38 35 34 33 28 10 19 19 9 13 16 10 14 22 35 38 35 34 24 26 31 27 24 32 36 35 22 7 28 18 16 29 6 9 16 8
46 44 43 42 41 41 43 43 38 37 37 38 34 33 30 25 16 15 13 16 17 11 3 8 17 28 34 30 34 28 18 25 36 36 27 13 23 17 13 18 22 28 19 18 36 20 14
48 42 42 39 40 40 42 42 38 34 35 37 32 22 25 15 10 9 18 18 11 6 8 10 18 29 24 24 17 32 31 26 17 23 28 8 16 14 4 9 8 13 18 22 23 33 24
48 41 40 38 37 40 39 40 36 31 29 34 32 24 19 18 12 9 15 27 15 5 11 17 25 27 26 26 26 24 28 23 28 15 21 9 18 5 16 12 24 20 22 22 9 10 28
48 42 40 38 36 37 36 35 33 26 23 26 20 14 14 12 10 20 18 10 5 3 6 11 9 16 7 17 23 26 18 20 12 25 31 21 14 26 7 27 15 10 7 22 12 17 23
51 46 41 37 34 33 33 30 28 23 17 14 11 15 11 13 21 29 21 7 5 13 8 10 14 12 6 5 12 11 14 3 7 11 18 26 11 23 32 12 13 17 22 23 18 7 16
55 50 41 36 32 32 30 23 24 19 14 7 11 25 10 16 15 20 19 15 11 10 6 7 13 9 4 7 5 5 4 18 6 13 5 13 14 18 29 22 29 29 18 7 12 19 28
58 50 43 38 35 33 29 21 20 18 13 6 9 9 24 27 33 20 11 21 17 16 14 10 12 10 13 11 10 5 14 8 12 16 8 8 15 17 26 13 17 22 15 19 10 15 29
61 54 46 38 36 34 30 23 17 18 15 8 14 11 10 12 26 25 12 9 24 15 18 13 15 21 21 14 15 18 12 20 11 10 9 10 19 28 26 26 20 25 29 21 19 23 26
63 54 45 41 37 35 30 23 20 18 16 15 9 10 10 22 8 14 15 22 22 14 11 21 18 10 15 19 14 21 7 3 11 16 14 11 16 18 26 32 22 28 29 26 29 28 29
65 57 51 47 39 35 31 24 21 17 16 10 10 12 10 17 19 20 25 26 20 0 14 9 5 14 24 12 11 15 11 10 10 10 15 12 17 13 26 22 23 20 23 31 21 25 32
66 57 54 48 40 34 31 26 22 20 23 19 8 9 16 19 21 23 5 16 16 17 14 8 12 17 12 13 13 17 21 19 19 18 16 15 16 19 22 17 28 8 12 11 17 25 30
69 61 55 46 40 34 32 28 24 22 22 22 15 11 17 19 26 28 11 18 19 15 19 16 5 7 16 10 16 22 19 20 25 26 17 18 17 22 22 24 24 10 5 7 17 24 27
66 59 51 44 39 34 32 29 25 23 22 22 15 17 11 21 16 10 22 22 19 20 21 22 10 6 6 16 21 31 26 29 30 29 21 18 17 20 26 11 24 16 14 15 11 27 18
65 58 51 43 39 35 31 29 26 24 23 22 15 26 11 24 15 5 13 12 17 13 12 14 5 11 11 17 25 26 27 31 31 30 24 22 21 29 27 22 19 12 17 5 20 9 27
63 56 48 43 38 34 31 28 25 23 22 21 15 23 14 23 15 10 17 14 9 15 17 8 10 18 13 22 24 21 24 25 23 26 24 13 22 22 22 26 31 18 5 8 12 20 27
62 55 48 43 39 34 30 27 25 24 24 24 10 18 15 16 12 13 21 22 17 7 9 5 7 6 15 10 19 17 20 11 12 20 31 23 22 18 20 11 6 10 15 23 26 24 26
Wind_Direction_850mb
331 339 340 344 350 353 353 353 351 352 354 355 354 351 350 342 342 339 336 328 321 306 282 249 234 228 230 240 231 151 221 228 172 264 287 306 283 337 348 348 307 283 54 44 53 64 20
324 332 334 339 344 351 348 350 347 348 348 351 350 350 349 343 341 341 333 328 322 294 279 240 223 216 219 249 128 233 217 203 180 256 294 306 332 342 292 334 312 25 0 62 36 65 106
319 325 332 335 340 346 344 344 343 342 342 347 346 348 347 343 343 342 333 332 326 298 266 226 214 206 236 240 178 190 193 194 228 250 289 326 309 306 340 262 333 247 239 192 108 60 84
316 326 331 331 335 341 340 340 336 339 338 344 342 345 345 344 345 343 337 337 343 333 247 211 201 191 244 198 191 200 209 231 232 250 268 290 294 287 272 327 250 259 325 126 95 30 95
318 323 328 327 331 333 336 335 332 335 336 339 340 342 345 344 344 343 337 335 289 13 308 193 184 199 221 221 206 212 213 233 212 238 258 274 273 270 255 229 32 324 262 40 103 73 320
313 317 322 324 324 327 330 332 330 332 334 335 337 338 343 343 345 339 347 352 310 312 0 167 239 214 227 205 193 199 208 224 238 238 243 241 242 252 262 344 180 241 352 348 12 55 324
304 313 319 321 320 322 324 327 327 329 330 333 334 334 340 342 345 345 357 325 253 211 218 236 209 212 145 170 194 204 205 225 235 246 257 230 284 255 18 335 328 307 306 19 328 95 299
297 307 314 319 318 318 320 322 324 325 328 330 331 332 335 343 344 348 10 24 32 337 294 241 234 235 236 211 199 211 198 223 213 245 230 253 251 58 327 299 290 287 302 333 247 348 294
297 304 307 312 315 315 316 318 320 321 324 327 327 330 331 342 348 3 355 37 345 326 258 212 219 226 205 201 213 198 200 221 247 237 262 266 246 81 279 288 285 298 346 316 317 311 73
290 298 303 305 309 312 313 314 316 319 319 322 324 327 331 336 347 339 291 335 333 295 260 164 200 218 195 204 218 216 201 236 239 254 251 259 274 352 284 281 295 294 347 313 301 290 302
284 291 297 302 305 307 309 312 314 314 315 317 320 322 327 328 323 342 301 322 320 279 236 147 158 153 196 204 203 202 218 237 262 243 229 261 253 268 268 299 336 302 321 301 308 291 284
278 285 291 296 301 303 305 309 312 311 312 312 316 316 317 328 325 307 314 312 311 231 215 154 171 195 200 206 229 139 203 228 260 277 273 265 283 255 281 334 305 306 279 42 351 351 306
275 281 286 291 294 298 300 305 310 311 308 307 310 308 305 304 274 300 310 287 237 255 115 154 186 184 196 195 211 205 205 201 226 223 243 240 239 226 256 259 202 256 273 125 258 255 165
272 277 281 285 291 296 298 302 307 308 308 305 309 305 293 288 272 288 303 251 264 43 142 91 177 187 198 191 209 196 226 226 208 252 282 254 238 177 188 273 334 306 337 302 311 331 349
264 267 272 279 288 295 298 300 304 305 309 306 312 310 288 289 274 247 271 244 316 72 42 196 193 189 195 186 225 210 215 244 221 209 250 254 217 132 255 274 284 337 283 337 310 315 283
252 256 261 272 284 292 296 298 299 303 309 311 318 311 260 227 238 228 252 259 299 18 284 256 191 207 186 197 198 209 210 218 246 229 232 288 293 254 118 263 233 260 308 285 93 226 273
241 245 254 267 280 289 295 298 296 299 302 307 320 271 205 223 208 234 242 243 259 85 273 251 266 202 215 161 200 208 237 202 243 237 217 239 251 282 176 227 285 254 256 261 293 316 10
235 239 248 260 271 282 291 297 292 295 296 306 277 244 184 187 232 230 244 233 5 266 216 251 295 327 198 160 214 227 223 223 154 251 237 225 241 257 261 77 278 281 298 327 306 0 170
233 238 244 254 263 276 286 291 286 287 288 290 254 262 251 203 238 223 213 250 237 247 226 219 217 284 239 196 188 224 39 74 164 218 19 143 220 249 243 225 0 286 273 272 296 291 279
229 234 239 250 264 276 281 277 275 272 268 253 262 243 210 218 254 287 202 233 215 201 247 243 284 236 208 220 208 203 203 127 198 230 25 333 273 260 292 338 219 230 253 242 281 289 309
224 230 237 243 254 268 276 267 256 259 253 222 219 247 348 194 219 229 266 294 222 197 226 221 214 240 216 227 223 207 236 131 176 173 208 228 252 257 252 282 308 288 292 298 246 261 287
221 226 233 241 251 262 267 255 253 239 239 221 269 269 264 276 266 226 194 232 240 195 243 198 248 171 248 237 328 356 18 344 167 167 190 201 264 277 291 287 243 271 285 285 276 276 275
218 225 232 242 246 254 255 245 242 228 223 223 234 277 281 237 212 234 224 231 224 108 221 287 295 276 229 58 6 335 312 294 294 286 209 220 272 257 271 297 322 274 280 284 308 312 315
217 220 231 241 242 245 243 236 230 223 217 209 263 249 251 248 229 220 260 242 220 218 288 183 269 254 39 327 298 254 257 251 232 224 267 242 264 279 279 250 246 244 232 303 316 300 286
217 220 229 232 235 232 229 228 222 219 220 216 252 229 252 257 248 227 224 232 230 225 231 245 244 327 329 297 246 232 226 231 236 228 205 244 260 274 266 263 265 310 293 348 330 304 309
212 214 220 224 226 221 220 222 219 213 213 212 232 227 240 267 244 321 225 224 246 216 206 225 207 284 285 258 223 248 240 233 216 207 205 226 251 266 267 322 282 324 63 25 328 272 347
206 209 215 217 215 212 213 216 216 209 205 190 234 226 223 249 256 233 243 289 227 301 271 173 175 242 218 239 239 241 240 252 258 234 173 205 228 239 239 262 285 39 44 22 254 25 335
202 205 210 207 206 208 208 211 211 207 203 189 233 223 211 253 254 258 238 255 246 245 260 58 237 203 251 241 253 242 247 251 236 249 291 228 201 233 248 268 263 44 340 295 10 328 327
199 201 201 199 200 202 204 207 207 203 201 193 214 232 227 237 293 273 243 239 239 275 315 282 347 312 3 281 238 267 258 244 269 264 224 235 269 302 304 342 320 316 300 298 292 289 300